Greenville, AL

5:36 AM CDT on May 28, 2018 (GMT -0500)
Greenville Municipal

Weather History for KPRN - September, 2012

Change the Weather History Date:

Sunday, September 23, 2012

  Actual Average Record
Temperature  
Mean Temperature 72 °F -  
Max Temperature 87 °F 86 °F 96 °F (1931)
Min Temperature 57 °F 62 °F 47 °F (1983)
Cooling Degree Days 7    
Growing Degree Days 22 (Base 50)    
Moisture  
Dew Point 57 °F    
Average Humidity 63    
Maximum Humidity 93    
Minimum Humidity 29    
Precipitation  
Precipitation 0.01 in - - ()
Sea Level Pressure  
Sea Level Pressure 30.12 in    
Wind  
Wind Speed 3 mph (NNW)    
Max Wind Speed 8 mph    
Max Gust Speed -    
Visibility 10 miles    
Events      
Averages and records for this station are not official NWS values.
T = Trace of Precipitation, MM = Missing Value Source: NWS Daily Summary

Daily Weather History Graph

Daily Weather History Graph

Search for Another Location

Airport or City:

Astronomy

Sep. 23, 2012 Rise Set
Actual Time 6:35 AM CDT 6:41 PM CDT
Civil Twilight 6:11 AM CDT 7:05 PM CDT
Nautical Twilight 5:42 AM CDT 7:33 PM CDT
Astronomical Twilight 5:14 AM CDT 8:02 PM CDT
Moon 2:23 PM CDT (9/23) 12:07 AM CDT (9/23)
Length of Visible Light 12h 54m
Length of Day
12h 05m
First Quarter, 60% of the Moon is Illuminated
Sep 23
First Quarter
Sep 29
Full
Oct 8
Last Quarter
Oct 15
New
Oct 21
First Quarter

Hourly Weather History & Observations

Time (CDT) Temp. Heat Index Dew Point Humidity Pressure Visibility Wind Dir Wind Speed Gust Speed Precip Events Conditions
12:56 AM 68.0 °F - 63.0 °F 84% 30.08 in 10.0 mi NNW 3.5 mph - N/A   Clear
1:56 AM 68.0 °F - 62.1 °F 81% 30.09 in 10.0 mi NNW 3.5 mph - N/A   Clear
2:56 AM 66.0 °F - 61.0 °F 84% 30.08 in 10.0 mi NNW 4.6 mph - N/A   Clear
3:56 AM 64.9 °F - 57.9 °F 78% 30.09 in 10.0 mi NNW 3.5 mph - N/A   Clear
4:56 AM 63.0 °F - 57.0 °F 81% 30.10 in 10.0 mi Calm Calm - N/A   Clear
5:56 AM 60.1 °F - 57.0 °F 90% 30.12 in 10.0 mi Calm Calm - N/A   Clear
6:56 AM 57.9 °F - 55.9 °F 93% 30.13 in 8.0 mi Calm Calm - N/A   Clear
7:56 AM 64.0 °F - 59.0 °F 84% 30.14 in 10.0 mi Calm Calm - 0.01 in   Clear
8:56 AM 72.0 °F - 57.9 °F 61% 30.16 in 10.0 mi ENE 4.6 mph - N/A   Clear
9:56 AM 78.1 °F - 55.0 °F 45% 30.16 in 10.0 mi NE 3.5 mph - N/A   Clear
10:56 AM 81.0 °F - 50.0 °F 34% 30.16 in 10.0 mi NE 6.9 mph - N/A   Clear
11:56 AM 84.0 °F - 50.0 °F 31% 30.15 in 10.0 mi North 8.1 mph - 0.00 in   Clear
12:56 PM 84.9 °F - 50.0 °F 30% 30.15 in 10.0 mi North 6.9 mph - N/A   Clear
1:56 PM 87.1 °F - 51.1 °F 29% 30.12 in 10.0 mi North 8.1 mph - N/A   Clear
2:56 PM 86.0 °F - 51.1 °F 30% 30.12 in 10.0 mi NW 4.6 mph - N/A   Clear
3:56 PM 86.0 °F - 52.0 °F 31% 30.10 in 10.0 mi NW 5.8 mph - N/A   Clear
4:56 PM 84.9 °F 83.3 °F 54.0 °F 34% 30.10 in 10.0 mi NW 8.1 mph - N/A   Clear
5:56 PM 82.0 °F 81.6 °F 55.9 °F 41% 30.11 in 10.0 mi NW 3.5 mph - N/A   Clear
6:56 PM 75.0 °F - 61.0 °F 62% 30.11 in 10.0 mi Calm Calm - N/A   Clear
7:56 PM 71.1 °F - 64.9 °F 81% 30.12 in 10.0 mi Calm Calm - N/A   Clear
8:56 PM 68.0 °F - 64.0 °F 87% 30.14 in 10.0 mi Calm Calm - N/A   Clear
9:56 PM 66.9 °F - 61.0 °F 81% 30.14 in 10.0 mi NNW 3.5 mph - N/A   Clear
10:56 PM 66.0 °F - 60.1 °F 81% 30.15 in 10.0 mi NNW 4.6 mph - N/A   Partly Cloudy
11:56 PM 64.9 °F - 59.0 °F 81% 30.15 in 10.0 mi North 4.6 mph - N/A   Clear